Weather History for Driggs, ID

Change the Weather History Date:

Thursday, July 25, 2013

  Actual Average (KRXE) Record (KRXE)
Temperature  
Mean Temperature 67 °F 69 °F  
Max Temperature 86 °F 86 °F 93 °F (2008)
Min Temperature 48 °F 52 °F 46 °F (2000)
Degree Days  
Heating Degree Days 0 0  
Month to date heating degree days 27  
Since 1 June heating degree days 199  
Since 1 July heating degree days 27  
Cooling Degree Days 2 4  
Month to date cooling degree days 65  
Year to date cooling degree days 87  
Since 1 June cooling degree days 83  
Growing Degree Days 17 (Base 50)    
Moisture  
Dew Point 36 °F    
Average Humidity 35    
Maximum Humidity 68    
Minimum Humidity 13    
Precipitation  
Precipitation 0.00 in 0.02 in 0.46 in (1977)
Month to date precipitation 0.60  
Year to date precipitation 7.84  
Sea Level Pressure  
Sea Level Pressure 29.98 in    
Wind  
Wind Speed 5 mph (ENE)    
Max Wind Speed 15 mph    
Max Gust Speed 20 mph    
Visibility 10 miles    
Events      
T = Trace of Precipitation, MM = Missing Value Source: NWS Daily Summary

Daily Weather History Graph

Daily Weather History Graph

Search for Another Location

Airport:

Trip Planner

Search our weather history database for the weather conditions in past years. The results will help you decide how hot, cold, wet, or windy it might be!

Date:

Astronomy

Jul. 25, 2013 Rise Set
Actual Time 6:06 AM MDT 8:54 PM MDT
Civil Twilight 5:32 AM MDT 9:28 PM MDT
Nautical Twilight 4:50 AM MDT 10:10 PM MDT
Astronomical Twilight 4:00 AM MDT 10:59 PM MDT
Moon 10:27 PM MDT (7/25) 9:48 AM MDT (7/25)
Length of Visible Light 15h 55m
Length of Day
14h 48m
Waning Gibbous, 88% of the Moon is Illuminated
Jul 25
Waning Gibbous
Jul 29
Last Quarter
Aug 6
New
Aug 14
First Quarter
Aug 20
Full

Hourly Weather History & Observations

Time (MDT) Temp. Dew Point Humidity Pressure Visibility Wind Dir Wind Speed Gust Speed Precip Events Conditions
12:56 AM 52.9 °F 34.9 °F 50% 29.92 in 10.0 mi East 4.6 mph - N/A   Clear
1:56 AM 52.0 °F 36.9 °F 56% 29.93 in 10.0 mi East 5.8 mph - N/A   Clear
2:56 AM 48.9 °F 38.8 °F 68% 29.93 in 10.0 mi Calm Calm - N/A   Clear
3:56 AM 48.9 °F 34.0 °F 56% 29.94 in 10.0 mi North 6.9 mph - N/A   Clear
4:56 AM 48.9 °F 34.9 °F 58% 29.96 in 10.0 mi SE 4.6 mph - N/A   Clear
5:56 AM 48.9 °F 34.9 °F 58% 29.98 in 10.0 mi SE 3.5 mph - N/A   Clear
6:56 AM 54.9 °F 32.9 °F 43% 29.98 in 10.0 mi ENE 3.5 mph - N/A   Clear
7:56 AM 59.0 °F 32.0 °F 36% 29.98 in 10.0 mi Calm Calm - N/A   Clear
8:56 AM 66.9 °F 34.0 °F 30% 29.99 in 10.0 mi Calm Calm - N/A   Clear
9:56 AM 72.9 °F 32.0 °F 22% 29.99 in 10.0 mi Calm Calm - N/A   Clear
10:56 AM 75.9 °F 41.9 °F 30% 29.99 in 10.0 mi West 5.8 mph - N/A   Clear
11:56 AM 81.9 °F 32.0 °F 16% 29.99 in 10.0 mi Calm Calm - N/A   Partly Cloudy
12:56 PM 83.8 °F 28.0 °F 13% 29.99 in 10.0 mi Variable 4.6 mph - N/A   Partly Cloudy
1:56 PM 82.9 °F 32.9 °F 16% 30.00 in 10.0 mi West 5.8 mph - N/A   Clear
2:56 PM 82.9 °F 36.9 °F 19% 30.01 in 10.0 mi WSW 8.1 mph - N/A   Clear
3:56 PM 84.9 °F 36.0 °F 17% 29.99 in 10.0 mi SW 6.9 mph - N/A   Clear
4:56 PM 86.9 °F 32.0 °F 14% 29.98 in 10.0 mi Variable 3.5 mph - N/A   Partly Cloudy
5:56 PM 86.9 °F 32.0 °F 14% 29.98 in 10.0 mi NNW 13.8 mph - N/A   Clear
6:56 PM 82.9 °F 36.9 °F 19% 29.98 in 10.0 mi NNW 15.0 mph 19.6 mph N/A   Clear
7:56 PM 79.0 °F 41.0 °F 26% 29.99 in 10.0 mi NE 6.9 mph - N/A   Clear
8:56 PM 68.0 °F 38.8 °F 34% 29.99 in 10.0 mi East 8.1 mph - N/A   Clear
9:56 PM 66.9 °F 43.0 °F 42% 30.01 in 10.0 mi SSW 4.6 mph - N/A   Clear
10:56 PM 63.9 °F 45.0 °F 50% 30.02 in 10.0 mi East 5.8 mph - N/A   Clear
11:56 PM 59.9 °F 38.8 °F 46% 30.01 in 10.0 mi East 9.2 mph - N/A   Clear